Back to catalog

STARLINK-34173

AliveCommunicationsVLEO
NORAD 64196·PAYLOAD·🇺🇸 United States

Launched May 28, 2025 from Cape Canaveral Space Force Station

Loading…

Next Passes (next 24 hours)

TLE

FreshSource: CelesTrak SupGP

Epoch: Sep 15, 2026, 03:23 UTC

1 64196C 25113AC  26258.14145833  .00001843  00000+0  59237-4 0  2583
2 64196  53.1593 289.7072 0001319  93.5004 183.2705 15.31708476    13

Track STARLINK-34173 in real time with AllMySat

Download on the App Store